Location: Gwatt
(46.7204°N, 7.6223°E)
Time: 21:01:24
(UTC+00:00)

Vanguard 2 - All Passes

Search period start: 21 January 2021 00:00
Search period end: 31 January 2021 00:00
Orbit: 553 x 2937 km, 32.9° (Epoch: 20 January)

Date Brightness Start Highest point End Pass type
(mag) Time Alt. Az. Time Alt. Az. Time Alt. Az.
21 Jan - 17:59:03 10° SSW 18:02:28 19° SSE 18:06:48 10° SE visible
21 Jan - 20:05:39 10° SW 20:10:14 22° S 20:16:32 10° SE visible
21 Jan - 22:14:50 10° SW 22:18:46 14° SSW 22:23:30 10° S night (unlit)
22 Jan - 18:16:30 10° SW 18:19:59 19° S 18:24:26 10° SE visible
22 Jan - 20:23:39 10° SW 20:27:52 18° S 20:33:25 10° SSE visible
23 Jan - 16:28:37 10° S 16:30:12 12° SSE 16:31:52 10° SE daylight
23 Jan - 18:34:06 10° SW 18:37:31 19° S 18:41:53 10° SE visible
23 Jan - 20:42:01 10° SW 20:45:30 15° SSW 20:49:48 10° SSE visible
24 Jan - 16:45:32 10° SSW 16:47:38 14° SSE 16:49:59 10° SE daylight
24 Jan - 18:51:54 10° SW 18:55:05 17° S 18:59:05 10° SE visible
24 Jan - 21:01:33 10° SSW 21:03:09 11° SSW 21:04:53 10° S visible
25 Jan - 17:02:49 10° SSW 17:05:08 14° S 17:07:45 10° SE visible
25 Jan - 19:09:58 10° SW 19:12:41 14° S 19:15:55 10° SSE visible
26 Jan - 17:20:22 10° SSW 17:22:39 14° S 17:25:13 10° SE visible
26 Jan - 19:28:44 10° SSW 19:30:17 11° SSW 19:31:59 10° S visible
27 Jan - 15:31:47 10° S 15:32:51 11° S 15:33:55 10° SSE daylight
27 Jan - 17:38:10 10° SSW 17:40:11 13° S 17:42:25 10° SSE visible
28 Jan - 15:48:44 10° SSW 15:50:20 12° S 15:51:57 10° SSE daylight
28 Jan - 17:56:30 10° SSW 17:57:44 11° S 17:59:02 10° S visible
29 Jan - 16:06:10 10° SSW 16:07:51 12° S 16:09:33 10° SSE daylight
30 Jan - 14:16:37 10° SSW 14:18:00 11° S 14:19:19 10° SSE daylight
30 Jan - 16:23:58 10° SSW 16:25:21 12° S 16:26:46 10° SSE daylight
